Wind_Speed
45 42 40 39 39 37 35 33 31 30 28 27 26 23 21 18 17 18 19 21 22 24 25 27 28 28 26 27 29 29 29 29 30 30 33 35 37 36 36 35 36 37 37
49 45 43 41 42 40 37 35 33 31 30 30 29 27 25 23 20 21 22 24 25 27 29 27 27 28 27 28 29 30 30 29 31 30 32 35 38 37 36 36 37 38 39
48 48 47 45 44 43 42 38 35 33 31 32 33 32 31 30 28 26 27 27 29 29 30 29 28 29 28 29 30 31 31 31 29 30 32 36 39 39 37 38 39 40 39
50 47 47 46 45 44 42 40 38 35 33 33 32 33 33 33 31 29 30 30 31 31 31 30 30 29 29 29 30 31 31 31 31 32 34 37 40 39 37 39 40 41 41
53 50 47 45 46 46 45 42 40 37 36 35 34 33 34 34 33 32 33 32 32 32 30 29 29 31 30 30 31 32 31 32 33 34 36 38 39 38 39 40 41 42 43
54 56 54 49 48 47 46 45 42 40 38 37 36 37 36 35 34 36 35 34 33 32 31 29 29 31 31 31 32 32 31 32 33 34 36 38 39 40 40 41 42 43 44
56 54 54 51 49 48 47 46 45 44 41 41 39 37 38 39 37 34 33 32 31 31 31 30 30 31 32 32 33 32 32 31 33 35 37 38 40 40 41 43 44 45 46
59 55 55 51 50 50 49 49 49 48 45 44 42 42 41 40 37 33 33 32 31 32 31 31 32 32 32 33 33 34 33 33 33 36 37 39 41 41 43 44 45 46 48
59 56 54 52 51 50 50 50 50 49 47 45 43 42 40 40 36 34 33 32 32 31 33 34 33 33 32 33 33 33 34 34 34 36 38 40 42 43 44 45 47 49 50
59 59 56 55 54 51 51 51 51 50 47 43 42 39 39 37 35 35 34 33 33 34 34 35 36 35 34 34 35 35 35 36 35 37 39 41 42 44 45 48 50 52 53
58 56 55 52 49 48 49 51 52 49 45 42 39 39 39 38 37 35 36 36 36 36 36 36 38 36 36 35 34 35 35 37 38 38 40 42 43 45 47 50 52 54 56
55 54 50 50 49 52 52 51 51 48 46 43 41 39 40 40 40 38 38 39 39 38 37 38 38 38 37 36 36 35 36 38 40 41 42 44 46 47 50 53 56 57 60
46 47 44 49 53 55 51 52 55 53 50 48 45 43 42 41 40 40 41 41 41 41 39 38 38 37 37 37 35 36 38 40 40 44 45 47 49 51 53 55 58 62 64
47 41 46 46 41 45 47 52 56 56 52 50 49 46 44 44 43 41 42 43 43 43 43 42 41 40 38 39 38 39 41 44 45 47 48 51 53 55 57 60 62 64 66
49 43 45 48 42 41 43 47 48 50 52 49 52 51 49 47 45 45 46 45 45 45 45 45 45 44 44 44 45 46 47 48 50 51 53 54 55 57 61 62 64 67 67
50 51 51 53 55 50 48 50 60 62 61 57 57 52 55 53 51 52 51 51 50 50 50 49 48 48 48 48 49 51 52 53 55 56 58 58 59 59 60 60 64 65 67
52 52 48 52 48 49 43 45 47 51 48 52 50 46 45 49 51 51 53 54 54 54 53 53 53 51 53 52 54 55 56 57 57 58 59 60 60 61 61 64 67 66 68
65 52 56 48 46 46 45 48 45 40 41 47 48 46 49 50 51 54 56 56 56 57 59 57 54 55 56 56 55 57 58 58 59 59 59 59 63 63 66 67 67 69 71
80 69 58 56 48 45 45 40 47 45 42 46 49 54 50 53 58 60 62 62 65 60 55 54 57 56 58 58 58 58 59 62 64 63 62 61 61 68 71 72 72 73 77
92 90 77 58 55 50 52 56 55 44 41 46 48 54 49 53 53 57 58 60 63 63 64 61 65 63 65 64 62 63 64 63 63 60 62 64 66 69 70 74 79 80 81
96 96 91 92 62 68 68 75 69 68 70 64 66 50 54 60 65 67 64 62 63 65 66 67 67 59 62 62 64 63 63 65 66 67 68 69 73 75 77 77 80 83 87
92 97 96 97 93 83 83 83 81 79 86 90 80 65 70 74 71 67 68 67 67 66 62 65 66 67 68 67 64 62 68 71 71 71 74 75 75 76 77 83 88 91 89
95 95 99 104 99 92 89 85 86 84 87 86 88 83 85 81 85 73 69 71 71 71 70 70 75 73 71 69 67 68 68 73 75 75 75 77 79 81 86 93 94 91 89
101 103 100 104 104 103 99 86 78 81 89 89 87 81 73 84 84 75 72 83 78 75 78 83 79 82 81 81 79 78 75 75 75 79 85 86 87 87 88 93 95 96 97
100 103 103 101 95 101 94 97 89 84 91 94 95 93 84 87 89 91 91 86 86 87 89 85 85 81 82 79 77 80 83 85 88 87 89 90 86 98 102 99 97 98 99
109 107 107 105 104 99 95 92 97 103 96 94 93 92 96 88 90 97 100 100 99 98 93 98 98 85 83 85 90 93 93 94 95 96 95 100 104 110 102 100 100 103 105
Wind_Direction
234 235 238 239 245 247 251 256 259 258 260 259 258 266 263 270 280 286 288 290 294 296 299 302 306 309 308 309 309 307 311 308 306 310 310 312 316 321 323 326 327 329 331
235 235 238 241 245 249 250 252 257 261 262 262 262 262 267 274 275 285 295 298 298 299 300 304 306 307 305 301 307 307 307 306 306 309 308 313 316 320 324 325 326 328 329
234 235 236 240 244 249 253 255 255 257 261 264 267 265 264 272 281 286 289 295 297 299 301 302 300 303 301 302 304 306 305 307 305 307 308 310 313 318 320 322 324 325 327
231 234 236 239 245 249 251 254 258 260 262 264 269 269 269 272 280 288 288 291 295 294 296 299 297 301 296 299 302 304 303 303 305 307 308 309 312 315 319 320 322 323 325
231 234 236 238 243 246 250 254 257 261 264 267 272 275 275 277 280 288 295 295 295 294 291 294 292 298 297 295 303 304 303 304 304 307 307 307 311 315 318 319 321 322 324
236 237 239 240 245 248 249 253 258 262 265 267 270 271 276 279 282 288 292 294 294 292 290 291 292 295 298 297 301 302 302 303 304 306 307 308 311 313 316 317 318 321 321
236 238 242 242 245 250 254 256 260 261 264 268 270 273 277 279 284 286 287 289 289 289 290 292 294 295 297 298 298 302 301 303 303 304 306 307 309 312 314 314 316 319 320
237 240 241 244 247 251 254 258 261 262 265 268 271 274 278 279 282 280 282 284 285 287 289 291 293 295 295 298 295 302 301 301 301 301 303 306 308 311 312 314 316 317 319
235 240 242 246 247 251 253 256 259 261 265 268 269 271 275 276 276 276 277 280 283 286 289 291 293 295 292 295 295 296 298 297 298 300 304 307 308 310 312 313 314 314 316
237 240 241 244 246 250 254 256 258 260 262 265 265 267 271 271 273 274 276 278 283 286 287 292 292 291 293 290 293 295 296 297 300 303 305 306 307 309 310 312 313 313 314
235 240 243 243 247 255 259 258 256 256 258 259 260 266 268 270 272 272 275 279 282 286 288 292 294 292 292 291 290 292 295 297 300 303 305 306 308 309 310 310 311 311 311
233 241 244 248 253 254 255 257 254 251 254 256 257 264 269 269 270 274 275 278 280 284 286 291 294 293 293 294 290 291 293 296 300 303 305 307 307 307 308 309 309 308 309
230 233 241 243 249 251 259 257 250 250 254 256 257 262 267 268 270 272 274 276 277 282 284 288 294 296 297 297 293 293 297 300 302 303 304 303 304 305 305 306 306 307 309
223 239 244 248 248 259 262 258 251 250 254 257 258 263 264 267 270 272 273 274 276 280 282 285 287 291 294 295 296 298 299 299 298 299 301 301 301 302 303 306 306 308 305
228 229 230 239 247 246 252 253 246 252 261 261 260 261 263 268 271 271 275 273 277 278 282 284 284 285 286 288 291 293 295 296 297 298 298 298 300 302 304 307 306 303 307
209 211 226 239 242 250 255 251 250 255 260 263 257 265 264 268 270 271 273 275 276 280 282 282 283 284 288 290 292 293 293 293 295 298 300 301 302 303 303 303 302 303 310
208 215 223 233 236 240 245 257 253 259 257 259 260 257 262 263 267 271 275 278 279 281 283 284 283 284 287 288 291 291 293 295 297 297 300 300 301 301 301 300 303 306 305
211 211 226 235 227 229 243 247 252 256 256 250 248 253 256 259 263 270 273 277 279 282 281 280 282 284 286 286 288 288 289 292 294 295 297 296 299 299 299 301 302 305 307
210 212 219 228 226 229 237 242 248 251 248 250 250 253 261 267 267 271 273 273 275 278 276 280 282 281 283 285 285 286 287 290 293 293 294 296 295 296 299 303 304 306 309
214 216 221 226 228 225 226 235 235 247 260 263 257 253 272 271 271 268 269 270 271 273 275 276 278 280 281 282 282 284 286 288 289 292 292 293 292 297 300 303 306 308 309
214 217 221 226 227 237 242 243 243 251 254 260 262 262 268 272 271 270 264 266 268 270 273 275 278 279 279 281 280 280 282 284 287 289 289 289 293 299 301 303 305 307 308
216 219 221 225 228 234 241 246 245 248 255 259 254 257 267 274 275 272 265 267 269 268 270 273 274 276 277 277 278 280 284 287 285 286 292 295 296 296 300 302 303 305 308
224 222 222 224 230 234 236 243 246 254 252 250 256 261 268 270 270 269 267 272 269 274 276 280 278 276 277 278 277 279 281 284 290 293 292 292 296 297 301 304 306 304 304
227 226 225 227 228 234 240 242 249 250 251 252 260 263 268 266 265 260 265 273 272 272 273 278 277 277 276 276 279 282 285 287 286 287 291 294 296 300 302 301 300 300 300
233 233 232 233 233 233 238 241 244 246 253 256 258 259 263 262 263 262 265 266 270 274 277 274 275 274 273 276 279 281 286 285 285 286 293 295 293 297 299 298 299 300 299
229 234 236 237 234 235 236 240 241 244 247 253 255 257 261 260 263 264 266 268 268 269 270 278 279 270 274 277 280 281 284 286 288 288 291 292 295 297 297 296 296 297 298
Height
10893 10896 10898 10901 10903 10905 10907 10909 10911 10912 10914 10916 10918 10919 10920 10921 10921 10921 10921 10920 10919 10918 10917 10916 10915 10913 10912 10910 10909 10907 10905 10904 10902 10901 10899 10896 10894 10891 10889 10887 10884 10881 10878
10888 10891 10894 10897 10899 10901 10904 10906 10907 10908 10910 10912 10914 10915 10916 10917 10917 10917 10917 10917 10916 10915 10914 10912 10911 10910 10909 10907 10905 10903 10901 10900 10899 10898 10896 10893 10890 10888 10886 10884 10881 10878 10875
10883 10886 10889 10892 10895 10898 10900 10902 10904 10905 10906 10908 10909 10911 10912 10913 10914 10914 10914 10913 10912 10911 10910 10909 10908 10906 10905 10903 10902 10900 10898 10896 10895 10894 10893 10891 10888 10885 10883 10880 10877 10874 10870
10877 10881 10884 10887 10890 10893 10896 10899 10900 10901 10903 10904 10905 10906 10907 10908 10909 10909 10910 10909 10908 10907 10906 10905 10904 10903 10901 10899 10898 10896 10894 10893 10892 10890 10888 10887 10884 10881 10879 10876 10873 10869 10866
10872 10876 10879 10882 10884 10887 10890 10893 10895 10897 10899 10900 10901 10902 10902 10904 10905 10905 10905 10904 10903 10902 10902 10901 10900 10898 10897 10896 10894 10892 10890 10889 10888 10886 10884 10882 10879 10876 10874 10871 10868 10864 10861
10866 10870 10874 10877 10880 10882 10885 10888 10890 10893 10894 10896 10896 10897 10898 10899 10900 10900 10900 10900 10899 10898 10897 10896 10895 10894 10893 10891 10890 10888 10886 10885 10884 10882 10880 10877 10874 10872 10869 10866 10863 10860 10856
10860 10865 10868 10872 10875 10878 10880 10883 10885 10887 10888 10890 10892 10892 10893 10894 10895 10895 10895 10895 10894 10893 10892 10891 10890 10890 10888 10886 10885 10884 10882 10880 10879 10877 10874 10872 10869 10867 10864 10861 10858 10854 10850
10854 10858 10863 10866 10869 10871 10874 10876 10878 10880 10882 10884 10886 10886 10887 10888 10889 10890 10890 10890 10889 10888 10887 10886 10885 10885 10883 10882 10881 10879 10877 10876 10874 10872 10870 10867 10865 10862 10859 10856 10852 10848 10844
10847 10851 10855 10859 10862 10864 10867 10869 10871 10874 10875 10877 10879 10880 10881 10882 10884 10884 10884 10884 10884 10883 10881 10880 10879 10879 10878 10877 10876 10875 10873 10872 10870 10867 10865 10862 10860 10857 10854 10851 10847 10842 10838
10840 10844 10848 10852 10855 10857 10859 10861 10864 10866 10868 10870 10871 10873 10874 10876 10877 10878 10878 10879 10878 10877 10876 10874 10874 10873 10872 10871 10870 10869 10869 10866 10865 10863 10860 10857 10854 10851 10848 10844 10840 10836 10832
10832 10836 10840 10843 10847 10851 10852 10854 10857 10858 10860 10862 10864 10866 10867 10869 10870 10871 10872 10873 10873 10872 10871 10869 10867 10867 10866 10865 10864 10863 10862 10861 10860 10858 10855 10852 10848 10845 10841 10838 10833 10829 10824
10825 10831 10834 10837 10839 10842 10845 10847 10849 10851 10854 10855 10857 10859 10860 10862 10863 10865 10866 10867 10867 10866 10865 10864 10862 10861 10859 10858 10857 10856 10856 10855 10853 10851 10849 10846 10842 10839 10835 10830 10825 10820 10816
10817 10822 10824 10827 10830 10833 10837 10839 10841 10844 10847 10848 10850 10852 10854 10855 10857 10858 10860 10860 10860 10860 10859 10858 10857 10855 10854 10852 10851 10850 10849 10849 10847 10845 10842 10839 10835 10832 10827 10823 10818 10812 10807
10810 10812 10814 10816 10821 10825 10829 10830 10833 10837 10839 10842 10844 10845 10847 10848 10850 10851 10852 10853 10853 10853 10853 10852 10851 10849 10848 10847 10845 10844 10843 10841 10840 10838 10835 10831 10827 10824 10820 10815 10809 10803 10798
10806 10807 10803 10805 10812 10817 10821 10824 10827 10830 10832 10835 10837 10839 10840 10841 10842 10843 10844 10845 10846 10845 10845 10845 10844 10843 10841 10840 10839 10837 10835 10833 10831 10829 10827 10824 10820 10816 10811 10807 10800 10793 10789
10799 10798 10797 10799 10803 10809 10812 10814 10817 10821 10823 10824 10828 10831 10832 10833 10834 10835 10836 10837 10838 10838 10838 10838 10837 10836 10834 10833 10831 10829 10827 10825 10823 10821 10818 10815 10811 10808 10804 10798 10791 10786 10781
10791 10793 10793 10795 10795 10798 10801 10804 10806 10809 10812 10815 10817 10821 10824 10825 10825 10826 10827 10827 10828 10830 10830 10830 10830 10828 10827 10824 10822 10819 10818 10816 10815 10812 10810 10806 10801 10798 10794 10787 10781 10778 10773
10784 10785 10788 10788 10789 10792 10792 10793 10795 10798 10802 10805 10806 10810 10813 10815 10816 10816 10817 10818 10818 10819 10820 10821 10821 10820 10818 10815 10813 10810 10808 10806 10805 10803 10801 10796 10791 10786 10783 10777 10773 10768 10763
10772 10776 10776 10779 10779 10783 10785 10781 10783 10788 10790 10793 10796 10800 10802 10805 10806 10805 10807 10808 10808 10809 10810 10810 10810 10809 10807 10806 10803 10800 10798 10796 10794 10792 10789 10786 10781 10775 10771 10767 10760 10757 10751
10757 10761 10767 10766 10770 10776 10775 10776 10776 10777 10775 10782 10789 10792 10793 10793 10794 10795 10796 10796 10796 10798 10799 10798 10799 10796 10795 10795 10792 10790 10788 10786 10784 10782 10777 10774 10770 10767 10763 10756 10749 10745 10741
10743 10748 10750 10758 10762 10765 10764 10763 10767 10771 10770 10774 10782 10782 10782 10784 10784 10784 10783 10783 10783 10784 10786 10787 10787 10785 10782 10783 10780 10779 10775 10774 10772 10770 10765 10762 10762 10758 10752 10745 10740 10734 10729
10727 10736 10744 10745 10753 10754 10753 10753 10760 10763 10764 10764 10771 10771 10770 10772 10772 10773 10772 10770 10770 10770 10771 10774 10774 10771 10770 10771 10771 10769 10763 10760 10761 10757 10753 10751 10748 10745 10739 10734 10729 10723 10718
10714 10721 10725 10731 10738 10742 10744 10745 10751 10755 10753 10751 10759 10762 10765 10765 10763 10758 10758 10754 10755 10754 10758 10761 10761 10759 10757 10758 10758 10757 10756 10748 10746 10742 10739 10736 10734 10731 10726 10720 10714 10708 10703
10696 10704 10709 10717 10722 10730 10737 10740 10739 10745 10744 10746 10744 10749 10751 10750 10753 10749 10745 10744 10743 10741 10743 10747 10747 10748 10746 10742 10742 10744 10744 10743 10737 10732 10722 10722 10722 10718 10713 10708 10701 10695 10689
10680 10689 10699 10708 10717 10720 10724 10728 10736 10735 10735 10736 10734 10736 10741 10739 10737 10735 10734 10734 10729 10726 10729 10731 10732 10732 10732 10730 10727 10727 10727 10727 10724 10724 10719 10707 10707 10706 10701 10694 10688 10681 10675
10669 10675 10682 10690 10697 10706 10711 10713 10713 10719 10717 10715 10720 10722 10723 10723 10721 10721 10720 10718 10718 10716 10714 10714 10717 10716 10718 10716 10715 10713 10710 10708 10706 10705 10707 10700 10692 10689 10684 10679 10673 10667 10660